Temp
5 5 5 5 5 6 6 6 6 7 7 7 7 7 7 8 8 8 9 9 9 9 10 10 10 11 11 11 12 12 12 13 13 14 14 14 15 15 15 15 15 15 14 14 14
4 4 4 5 5 5 5 5 6 6 6 7 7 7 7 8 8 8 9 9 9 9 9 9 10 10 11 11 11 11 12 12 13 13 13 14 14 14 14 15 15 15 14 14 14
4 4 4 4 4 5 5 5 5 5 5 6 7 7 7 7 8 8 8 9 8 9 9 9 9 9 10 11 11 11 12 12 13 13 13 13 14 13 14 14 14 15 14 14 14
3 3 3 3 3 4 4 4 5 4 5 5 5 6 6 6 6 7 7 8 8 8 8 9 9 9 9 10 10 11 11 12 13 13 13 13 13 13 13 13 14 14 14 14 14
3 2 3 3 3 3 3 3 4 4 4 4 5 5 5 6 7 6 6 7 8 8 8 8 8 9 9 9 9 10 11 11 12 12 13 13 13 13 13 13 13 13 14 15 15
2 2 2 2 2 2 2 2 2 3 3 3 4 4 5 7 6 5 5 6 6 7 8 7 7 8 9 9 9 10 10 11 12 12 13 12 13 12 13 13 12 13 13 14 14
1 1 1 2 2 1 2 2 2 2 2 2 2 3 4 7 5 6 5 5 5 6 7 6 7 7 8 8 8 9 9 10 12 12 12 12 13 13 13 13 12 12 13 13 14
1 1 1 1 1 1 1 1 1 1 1 1 1 2 5 5 5 5 4 3 4 5 6 5 6 6 7 8 7 8 9 10 11 12 11 12 12 13 13 13 12 12 13 13 13
1 1 1 0 -0 -0 0 0 0 0 0 -0 1 1 4 3 4 4 4 4 3 4 5 4 5 5 5 6 6 7 8 9 10 11 11 11 12 13 12 12 13 12 12 12 13
0 -0 -1 -2 -3 -3 -3 -2 -2 -1 -1 -1 -0 0 1 1 2 4 4 4 4 3 3 4 4 4 5 5 6 7 7 7 9 10 10 10 11 12 13 13 12 13 13 13 13
-1 -3 -4 -3 -4 -4 -4 -4 -5 -5 -4 -3 -2 -0 0 -0 2 2 3 4 4 3 3 3 3 3 7 7 7 7 6 7 8 9 8 9 9 11 11 12 13 12 13 13 13
-3 -5 -5 -4 -4 -5 -5 -6 -7 -7 -5 -4 -3 -1 -1 -2 -1 0 2 2 3 4 3 2 3 6 5 5 4 5 6 7 7 7 7 8 9 9 10 12 12 12 12 12 13
-5 -6 -5 -5 -5 -6 -7 -7 -8 -8 -9 -4 -3 -2 -0 -2 -1 0 -0 1 1 2 3 2 6 4 4 4 3 3 4 5 6 7 7 7 8 9 10 11 12 12 13 13 13
-6 -6 -6 -6 -6 -7 -8 -8 -8 -9 -10 -6 -4 -1 -1 -2 -1 1 -1 -0 -0 1 1 1 3 3 4 4 3 3 5 5 4 4 5 6 6 8 10 12 12 13 12 13 13
-6 -6 -7 -7 -7 -8 -9 -8 -9 -9 -10 -5 -4 -5 -2 -1 -1 1 0 -1 1 1 -1 2 3 3 2 4 3 3 4 4 4 4 4 5 5 8 10 11 13 13 12 12 12
-6 -6 -7 -8 -8 -9 -9 -8 -9 -8 -10 -5 -5 -4 -4 -3 -2 -3 -1 -1 -1 -2 -2 1 1 1 3 3 3 3 2 4 3 4 3 5 5 7 8 12 13 13 13 13 12
-6 -7 -7 -8 -7 -9 -9 -9 -9 -8 -6 -5 -5 -5 -5 -4 -4 -4 -3 -2 -3 -3 -2 -1 -0 0 0 1 2 2 2 2 2 2 2 5 4 6 9 11 12 12 13 12 12
-6 -7 -7 -7 -7 -8 -8 -9 -10 -8 -7 -5 -5 -5 -5 -4 -3 -3 -4 -3 -3 -2 -2 -1 -1 -0 1 1 1 2 2 2 2 2 4 5 4 7 8 10 11 10 11 13 13
-6 -7 -7 -7 -7 -8 -9 -9 -9 -8 -7 -7 -5 -5 -4 -4 -4 -4 -4 -3 -3 -3 -2 -1 -1 -0 0 1 1 1 1 3 3 3 3 6 6 7 8 9 9 11 12 11 11
-6 -6 -7 -8 -8 -8 -9 -9 -9 -7 -7 -7 -6 -5 -5 -4 -4 -4 -4 -4 -3 -3 -3 -2 -2 -1 0 0 1 1 1 2 2 1 2 3 5 7 8 9 9 10 11 11 12
-6 -7 -7 -7 -8 -8 -9 -8 -7 -6 -7 -7 -7 -7 -6 -6 -5 -4 -4 -4 -4 -4 -3 -2 -3 -1 -1 -0 1 0 1 2 2 2 2 2 4 6 7 8 8 9 10 11 11
-6 -7 -7 -8 -9 -9 -9 -7 -7 -6 -7 -8 -7 -7 -6 -6 -6 -6 -5 -4 -3 -4 -4 -3 -4 -3 -2 -0 0 1 1 1 1 1 2 3 4 6 7 7 7 8 10 10 10
-6 -7 -7 -8 -9 -8 -8 -8 -8 -7 -7 -8 -7 -7 -7 -7 -6 -6 -5 -4 -4 -4 -3 -4 -4 -3 -2 -2 -0 -2 -0 -0 1 2 2 1 2 4 6 7 7 7 8 10 11
-6 -7 -7 -8 -9 -9 -9 -8 -8 -8 -7 -7 -7 -7 -7 -7 -6 -6 -6 -5 -5 -5 -5 -5 -4 -4 -4 -3 -2 -1 -1 -1 0 0 1 2 3 4 4 4 5 7 7 8 8
-7 -7 -8 -8 -8 -9 -9 -9 -9 -9 -8 -8 -7 -7 -7 -7 -7 -6 -6 -6 -5 -4 -4 -6 -5 -4 -3 -3 -4 -4 -3 -1 -2 -2 -1 0 2 3 3 4 4 5 6 7 8
-7 -8 -8 -8 -8 -9 -9 -9 -9 -9 -10 -9 -8 -8 -7 -7 -7 -7 -6 -6 -6 -5 -5 -5 -5 -5 -4 -4 -3 -4 -3 -2 -2 -1 -1 -2 -1 2 4 3 4 4 4 5 7
-7 -8 -9 -8 -9 -10 -9 -10 -10 -11 -9 -10 -10 -9 -8 -7 -8 -7 -7 -7 -7 -7 -6 -6 -5 -5 -5 -4 -4 -4 -2 -2 -3 -3 -3 -2 0 2 4 3 3 4 4 5 5
Height
3103 3103 3104 3104 3104 3104 3104 3105 3106 3107 3108 3110 3111 3113 3115 3116 3120 3125 3129 3130 3129 3128 3131 3134 3136 3138 3142 3144 3145 3146 3148 3148 3152 3155 3156 3157 3158 3160 3162 3165 3167 3170 3171 3173 3174
3098 3098 3098 3098 3099 3099 3099 3100 3100 3102 3103 3104 3105 3107 3110 3111 3114 3120 3121 3124 3125 3128 3130 3131 3133 3134 3137 3140 3141 3143 3142 3146 3150 3152 3153 3154 3155 3157 3161 3162 3164 3168 3170 3171 3172
3094 3093 3092 3092 3092 3093 3093 3094 3094 3094 3096 3097 3098 3101 3103 3105 3109 3112 3115 3117 3120 3123 3126 3126 3128 3130 3132 3134 3136 3137 3137 3144 3147 3148 3150 3152 3152 3152 3157 3160 3163 3166 3167 3169 3170
3088 3087 3087 3086 3085 3085 3086 3086 3087 3087 3088 3090 3091 3093 3096 3100 3107 3104 3107 3111 3114 3118 3119 3121 3123 3125 3127 3129 3131 3132 3135 3140 3144 3145 3146 3148 3150 3151 3152 3158 3161 3163 3165 3166 3168
3084 3083 3081 3080 3079 3078 3078 3078 3079 3080 3081 3082 3084 3085 3088 3090 3095 3100 3100 3104 3107 3111 3112 3115 3119 3120 3122 3124 3125 3125 3130 3134 3138 3140 3142 3143 3146 3148 3150 3153 3156 3159 3161 3164 3165
3080 3078 3076 3075 3073 3073 3071 3071 3071 3072 3073 3074 3075 3078 3079 3079 3089 3094 3096 3099 3101 3103 3106 3110 3112 3114 3116 3118 3120 3120 3124 3128 3132 3135 3138 3140 3143 3142 3148 3149 3152 3155 3157 3160 3163
3075 3073 3071 3069 3067 3066 3065 3065 3063 3063 3065 3066 3067 3067 3068 3073 3080 3086 3088 3091 3095 3098 3100 3104 3107 3108 3109 3113 3115 3116 3118 3120 3123 3127 3132 3135 3136 3135 3145 3146 3147 3150 3153 3155 3159
3067 3066 3064 3062 3060 3058 3058 3057 3057 3055 3056 3058 3059 3058 3055 3068 3069 3079 3080 3086 3089 3092 3095 3100 3101 3102 3103 3108 3111 3112 3113 3113 3115 3121 3125 3130 3124 3132 3140 3140 3142 3145 3148 3150 3153
3062 3059 3057 3054 3052 3050 3048 3047 3048 3048 3048 3049 3051 3051 3050 3056 3062 3069 3070 3076 3081 3083 3090 3094 3094 3096 3098 3101 3107 3106 3103 3105 3110 3115 3118 3121 3118 3126 3133 3134 3137 3139 3142 3144 3146
3056 3052 3049 3046 3045 3042 3040 3038 3038 3038 3039 3040 3041 3047 3047 3048 3049 3057 3060 3066 3071 3076 3083 3086 3087 3088 3090 3092 3091 3093 3096 3100 3104 3110 3113 3113 3113 3121 3125 3127 3131 3133 3136 3137 3139
3050 3046 3044 3042 3040 3038 3036 3034 3034 3031 3029 3032 3033 3034 3039 3039 3044 3049 3052 3056 3061 3067 3070 3075 3079 3074 3078 3083 3089 3091 3093 3096 3099 3105 3107 3106 3106 3112 3118 3118 3119 3124 3129 3131 3133
3045 3043 3041 3039 3037 3035 3032 3029 3027 3024 3017 3019 3024 3024 3031 3034 3037 3043 3046 3049 3052 3056 3062 3070 3064 3068 3079 3079 3083 3086 3088 3090 3095 3098 3101 3099 3097 3101 3106 3106 3109 3114 3118 3123 3126
3042 3039 3038 3037 3034 3031 3027 3025 3023 3022 3015 3007 3014 3015 3023 3026 3026 3037 3041 3042 3045 3048 3051 3055 3053 3071 3071 3072 3077 3079 3080 3085 3090 3093 3095 3093 3087 3089 3096 3098 3101 3103 3108 3113 3117
3039 3037 3034 3033 3032 3027 3024 3023 3022 3021 3016 3002 3004 3007 3012 3018 3014 3028 3032 3039 3039 3040 3046 3050 3057 3060 3062 3064 3070 3070 3077 3083 3085 3090 3088 3092 3082 3079 3084 3087 3091 3093 3099 3103 3108
3036 3034 3031 3027 3027 3024 3022 3022 3021 3021 3019 3005 3001 3001 3005 3009 3014 3016 3025 3029 3028 3033 3038 3036 3043 3049 3053 3054 3066 3063 3075 3079 3080 3082 3086 3087 3088 3063 3072 3073 3077 3084 3090 3095 3100
3033 3031 3029 3026 3024 3020 3018 3020 3021 3020 3013 3005 3003 3001 3002 3004 3007 3012 3014 3019 3025 3029 3033 3032 3039 3044 3043 3055 3060 3065 3071 3074 3074 3077 3077 3070 3084 3042 3060 3060 3069 3077 3082 3088 3094
3031 3029 3025 3022 3021 3018 3017 3019 3022 3017 3014 3008 3005 3004 3004 3005 3006 3009 3013 3015 3019 3025 3028 3029 3029 3035 3043 3046 3056 3061 3065 3067 3068 3068 3056 3060 3069 3045 3048 3055 3062 3068 3075 3080 3087
3028 3026 3023 3018 3017 3016 3016 3019 3021 3013 3012 3008 3006 3006 3006 3005 3004 3005 3008 3012 3015 3022 3026 3026 3026 3029 3034 3037 3045 3049 3054 3051 3053 3052 3044 3056 3050 3032 3046 3058 3059 3061 3065 3069 3076
3026 3024 3019 3016 3014 3013 3015 3014 3013 3012 3011 3008 3006 3005 3006 3005 3007 3005 3005 3008 3010 3015 3020 3021 3018 3022 3025 3035 3042 3041 3046 3044 3049 3047 3045 3041 3041 3041 3042 3047 3052 3057 3062 3065 3068
3023 3021 3018 3014 3013 3012 3012 3010 3009 3011 3011 3010 3007 3007 3007 3007 3008 3007 3006 3005 3005 3010 3015 3015 3015 3016 3020 3028 3031 3033 3041 3045 3046 3043 3044 3034 3032 3031 3034 3037 3044 3050 3054 3060 3065
3020 3018 3015 3012 3012 3010 3009 3005 3006 3010 3011 3010 3008 3007 3008 3008 3008 3007 3006 3004 3004 3004 3006 3010 3013 3010 3018 3018 3019 3025 3027 3033 3035 3033 3034 3030 3024 3029 3031 3036 3039 3043 3048 3053 3055
3018 3016 3013 3010 3012 3009 3006 3005 3005 3006 3009 3007 3006 3007 3006 3007 3007 3007 3006 3005 3003 3004 3006 3008 3008 3005 3007 3011 3014 3016 3015 3022 3021 3022 3022 3021 3013 3025 3029 3033 3035 3038 3040 3044 3046
3017 3014 3011 3010 3011 3009 3006 3003 3001 3001 3004 3003 3004 3005 3004 3003 3004 3001 3001 3002 3003 3001 3003 3006 3004 3004 3001 3005 3006 3003 3007 3011 3014 3015 3010 3014 3010 3019 3021 3022 3024 3027 3033 3038 3040
3015 3013 3011 3008 3007 3005 3002 3002 3000 2999 2999 2998 2997 2998 2998 2998 2999 2994 2994 2996 2999 2997 2996 2997 2997 2997 2996 2996 2999 2998 2998 3001 3003 3002 3003 3002 3009 3004 3010 3013 3017 3021 3026 3029 3030
3013 3010 3008 3006 3004 3002 3000 2998 2997 2995 2995 2995 2993 2992 2994 2991 2991 2988 2991 2990 2991 2990 2992 2990 2989 2989 2989 2991 2990 2991 2989 2989 2989 2993 2994 2995 2997 2993 3003 3004 3007 3010 3014 3016 3019
3010 3007 3003 3001 2999 2997 2996 2994 2993 2992 2990 2990 2989 2990 2988 2985 2986 2984 2985 2986 2983 2985 2987 2989 2983 2985 2982 2985 2985 2982 2981 2983 2984 2986 2984 2985 2986 2991 2992 2994 2995 2998 3003 3005 3006
3006 3003 2998 2997 2995 2993 2991 2989 2989 2988 2986 2985 2983 2980 2978 2980 2979 2977 2976 2976 2977 2978 2980 2982 2982 2981 2975 2979 2979 2976 2973 2977 2979 2981 2978 2974 2981 2987 2980 2982 2986 2988 2992 2994 2997
Wind_Speed
26 27 28 29 31 34 35 35 35 35 37 38 38 36 34 34 31 32 25 23 26 26 24 22 23 22 21 22 23 24 23 24 18 13 9 12 16 15 18 23 20 18 13 8 8
25 27 29 30 32 34 35 36 36 37 37 38 38 39 38 37 35 30 30 28 29 26 23 23 25 23 23 23 24 25 29 25 17 14 13 15 17 14 16 22 22 19 16 12 8
26 28 30 32 33 34 36 38 38 38 37 39 40 38 38 39 37 33 31 32 30 27 27 25 27 26 25 25 26 29 33 27 21 20 18 15 20 18 14 18 17 16 16 11 12
26 28 30 32 34 36 37 38 39 39 39 37 38 40 38 36 34 30 31 33 31 28 29 28 29 27 28 28 27 31 32 30 29 25 23 19 16 19 19 15 16 16 16 17 18
25 26 29 31 32 36 37 38 39 40 40 40 38 38 38 41 40 29 25 24 28 31 31 31 31 29 29 30 30 32 32 30 31 32 29 25 20 18 20 12 16 21 21 18 16
25 27 29 30 32 32 35 37 38 39 39 39 40 39 40 44 36 35 39 30 22 26 33 32 30 33 32 32 33 29 32 33 34 35 35 32 26 24 22 15 13 18 19 19 19
26 27 29 31 32 34 35 35 38 38 38 38 39 41 43 44 34 28 40 39 29 27 27 32 32 33 34 33 33 33 35 32 38 38 35 35 38 35 27 23 20 18 19 22 22
29 30 31 32 33 35 36 37 37 38 38 37 38 41 47 40 40 34 32 37 35 32 24 27 32 34 35 33 29 28 34 39 42 39 37 36 47 39 30 29 25 21 23 25 24
30 31 33 34 34 35 37 38 38 38 37 37 37 39 45 40 37 33 37 36 39 37 33 27 31 35 34 33 32 32 35 37 39 37 32 38 45 47 39 34 35 30 28 28 29
31 32 31 28 26 29 31 33 35 37 37 38 38 35 36 26 27 35 38 37 40 44 37 36 35 36 37 36 41 42 33 37 35 31 35 34 41 43 44 44 40 39 37 35 34
31 26 21 23 25 28 31 32 29 29 34 36 32 30 34 24 28 30 25 39 38 43 47 40 40 45 50 45 45 34 18 32 41 36 31 31 35 39 42 46 47 42 42 42 41
28 21 21 24 26 26 28 29 25 24 32 36 37 42 37 30 30 18 21 30 33 46 44 45 50 52 45 43 41 41 42 40 29 25 29 32 45 42 40 48 49 47 43 41 38
25 21 22 24 24 24 24 22 21 19 29 40 37 40 40 38 42 32 26 23 27 35 50 49 59 49 48 44 41 42 41 43 42 36 20 31 44 45 40 46 48 49 47 43 39
21 19 23 25 22 19 18 14 12 12 14 28 28 36 39 36 44 38 32 32 30 31 36 45 52 47 44 57 46 46 45 42 40 30 26 22 24 45 42 47 47 46 43 42 43
18 17 22 24 18 15 15 8 4 4 5 5 8 14 25 29 34 29 29 36 37 36 25 46 52 56 51 42 38 49 44 40 36 33 30 30 15 45 45 49 48 48 44 36 35
16 17 21 20 17 16 14 10 9 6 7 10 10 10 17 21 27 19 16 35 36 33 27 39 39 37 55 55 33 36 35 27 31 31 17 46 29 57 45 55 48 43 42 40 34
15 17 21 21 15 17 14 14 9 8 5 8 11 12 12 15 19 23 14 21 35 23 31 38 43 43 31 30 42 21 22 8 9 8 12 40 27 51 12 37 45 48 41 35 35
14 17 20 21 16 15 14 15 5 8 12 14 7 13 14 10 11 15 22 26 23 32 17 27 23 43 44 37 34 48 35 14 11 12 20 31 17 57 33 48 25 19 20 35 40
14 14 21 18 13 12 13 18 11 8 7 11 27 32 24 13 12 5 12 19 32 28 34 22 24 29 32 49 34 27 41 49 24 16 7 21 28 51 46 46 33 29 38 23 31
15 12 14 12 11 11 14 20 20 30 15 16 14 5 10 14 6 7 8 5 16 32 25 37 32 17 28 25 34 46 39 27 32 19 21 9 20 27 36 48 53 45 36 35 34
17 12 10 13 10 15 16 22 23 27 15 11 17 21 16 15 11 16 7 14 12 3 29 31 33 33 18 31 38 37 43 35 26 39 17 20 32 31 29 29 19 21 30 33 37
17 12 14 11 10 13 20 22 21 23 24 26 23 22 25 26 31 26 15 14 18 21 8 19 17 31 37 34 25 40 46 51 37 21 25 41 36 6 39 37 30 20 17 22 23
17 12 9 7 11 12 13 13 23 22 17 26 26 20 14 18 14 19 16 11 15 8 7 8 15 14 25 32 47 31 30 31 44 47 36 19 31 52 57 37 23 21 33 37 29
19 12 11 12 13 17 21 21 11 13 17 19 24 24 26 28 25 29 29 30 24 17 9 16 24 24 16 14 16 23 37 36 33 33 37 47 40 51 35 35 42 50 42 33 30
19 15 15 15 14 19 21 20 18 17 18 15 16 16 19 27 25 28 27 27 28 31 30 19 22 23 27 27 25 28 31 33 26 43 30 31 36 59 53 55 49 43 44 38 40
20 20 19 20 19 17 16 21 19 11 14 18 20 20 19 26 24 28 30 31 30 23 18 16 15 18 30 26 25 30 26 25 42 32 33 32 38 47 51 43 44 43 40 46 55
19 21 22 21 20 21 22 17 15 18 20 11 19 22 25 25 23 22 24 25 29 26 24 25 25 22 32 26 22 19 23 16 22 28 21 29 36 45 52 51 53 49 43 43 42
Wind_Direction
271 267 265 264 263 264 265 265 264 261 258 258 257 257 256 253 250 248 245 240 242 234 230 236 236 233 234 238 236 236 232 231 220 207 195 192 192 203 218 218 218 216 227 232 245
276 274 273 269 266 264 264 264 262 260 261 258 256 255 254 253 249 247 243 242 242 244 238 234 239 236 231 232 238 237 236 232 215 203 190 180 180 187 208 210 210 225 223 235 238
286 283 281 278 273 269 266 264 264 262 258 258 257 257 254 252 252 249 244 242 242 238 242 237 235 237 235 230 232 239 240 232 216 210 196 175 174 182 198 212 217 226 230 240 254
293 291 286 283 280 276 271 266 264 263 262 257 258 255 257 253 248 252 250 242 241 238 238 238 238 232 237 235 231 239 243 241 226 216 212 195 184 185 192 205 218 213 221 238 256
296 293 290 287 283 281 277 273 267 262 261 260 256 256 254 254 242 239 248 239 237 236 236 237 239 235 235 238 235 238 240 241 241 227 225 221 205 205 195 203 224 222 226 236 247
299 295 291 288 286 283 279 276 271 266 260 258 257 252 252 252 254 238 243 245 239 230 231 236 232 237 238 236 236 238 242 237 240 241 231 235 221 231 199 201 228 230 234 240 242
301 297 292 289 286 283 280 277 276 271 266 260 257 255 250 249 251 241 234 238 236 235 229 229 232 231 237 239 238 239 243 238 234 240 240 240 234 234 210 218 223 232 238 243 241
305 302 298 293 289 285 281 277 273 273 270 265 260 257 255 252 246 242 240 229 232 232 226 228 230 232 234 239 239 239 243 244 240 238 238 238 241 237 225 233 234 233 237 249 251
309 305 302 300 295 288 282 277 273 268 268 265 262 259 260 257 253 237 238 231 225 223 219 220 229 230 231 232 240 239 240 243 246 243 245 238 244 239 240 237 233 237 238 243 250
317 314 309 304 309 306 302 292 278 269 263 261 260 260 255 255 245 240 236 233 221 222 219 222 222 227 228 225 228 229 232 241 245 246 245 243 245 245 246 246 243 239 234 240 245
319 314 305 307 313 313 312 308 301 286 265 255 249 251 247 257 251 241 230 231 224 219 219 216 220 224 229 232 237 235 235 247 252 251 253 249 252 245 245 247 248 247 246 245 245
320 309 307 315 317 315 312 308 304 291 277 255 250 249 242 245 242 215 216 228 224 223 219 221 223 229 233 234 237 238 242 244 253 252 254 257 255 252 242 243 247 250 250 249 254
318 308 312 317 319 314 306 302 303 298 283 273 252 248 245 238 247 233 226 232 233 224 222 221 229 226 231 235 239 240 242 246 249 251 252 264 265 257 247 248 247 249 249 247 252
313 307 314 320 321 317 306 296 297 294 287 281 271 260 250 246 249 245 229 225 235 236 228 230 231 230 237 238 237 243 240 249 253 256 257 258 275 270 257 248 248 247 247 247 244
312 310 320 323 329 320 288 274 303 277 290 319 279 238 243 236 247 255 236 226 231 233 222 230 231 231 229 234 232 245 243 247 253 253 255 254 274 267 264 254 243 244 244 245 242
314 314 320 319 325 302 272 240 200 207 250 322 306 268 240 236 232 231 236 215 231 229 225 237 232 233 239 234 238 240 241 246 252 249 232 251 233 265 254 252 250 246 246 245 236
314 316 321 315 304 286 272 236 273 248 297 313 300 308 306 270 256 231 222 221 215 219 233 238 237 229 230 242 233 214 221 219 226 206 229 241 223 243 261 253 259 258 249 248 233
317 315 316 308 302 289 275 238 250 263 265 264 288 341 306 290 282 260 239 229 229 223 233 236 253 234 227 225 226 224 215 202 214 216 239 236 215 242 255 248 246 270 275 235 231
319 313 313 307 298 283 270 229 227 264 298 325 277 281 304 297 266 299 249 246 238 226 222 238 243 243 244 230 221 224 220 229 250 269 278 235 241 251 248 248 247 249 254 254 235
326 306 319 320 321 278 261 247 245 237 284 289 323 307 297 333 305 290 266 288 249 239 235 240 258 262 253 236 239 233 231 234 235 241 249 244 234 232 251 252 251 251 252 258 255
333 314 307 301 296 274 258 267 270 243 257 302 290 295 307 312 306 306 298 309 289 245 231 237 236 249 250 231 229 226 226 228 239 227 228 250 244 243 250 250 251 251 263 262 262
334 322 312 304 271 270 284 292 297 273 258 257 279 284 289 289 290 293 297 314 302 304 294 230 250 249 246 237 245 237 232 224 229 237 234 239 245 236 242 254 255 242 239 255 257
329 326 299 311 248 271 274 282 276 275 278 271 270 278 282 279 281 274 268 266 331 286 274 281 234 253 260 250 241 243 230 233 234 238 238 237 247 250 245 243 245 249 238 245 253
328 324 307 282 261 260 275 285 294 279 283 286 273 270 274 272 270 273 274 281 277 267 245 274 247 247 255 258 260 244 242 237 233 237 239 240 249 248 247 254 257 252 259 263 249
327 318 307 290 287 288 287 291 305 296 280 288 285 275 286 285 287 284 282 284 284 283 284 282 269 276 277 281 279 283 268 251 248 245 239 241 238 249 252 254 254 253 253 255 253
320 313 307 303 298 294 294 298 294 284 287 270 270 273 272 272 282 279 282 283 284 269 263 256 276 277 269 276 275 286 291 265 263 258 248 246 248 238 244 248 248 249 252 255 253
319 313 308 310 306 300 305 299 289 294 291 290 284 270 263 266 270 273 270 270 267 270 273 268 265 267 271 275 287 282 275 268 283 258 267 236 248 249 251 252 251 249 248 249 249